Regional Weather Roundup
Issued by NWS Lake Charles, LA

Home | Current Version | Previous Version | Text Only | Print | Product List | Glossary On
Versions: 1 2 3 4 5 6 7 8 9 10 11 12 13 14 15 16 17 18 19 20 21 22 23 24 25 26 27
000
ASUS44 KLCH 230110
RWRLCH
REGIONAL WEATHER ROUNDUP
NATIONAL WEATHER SERVICE LAKE CHARLES LA
700 PM CST MON JAN 22 2018

Note: "fair" indicates few or no clouds below 12,000 feet with no
significant weather and/or obstructions to visibility.


ACROSS SOUTHEAST TEXAS

CITY           SKY/WX    TMP DP  RH WIND       PRES   REMARKS
BEAUMONT       FAIR      54  31  41 NW9       30.05R
BEAUMONT CITY  FAIR      53  32  45 NW7       30.07R
ORANGE         FAIR      57  32  38 NW3       30.07R
JASPER         FAIR      57  28  32 CALM      30.07R
$$

ACROSS CENTRAL LOUISIANA

CITY           SKY/WX    TMP DP  RH WIND       PRES   REMARKS
LEESVILLE      FAIR      55  28  34 W7        30.02R
FULLERTON      NOT AVBL
ALEXANDRIA INT FAIR      51  37  58 W7        30.00R
ESLER FIELD    FAIR      54  27  35 W6        30.00R
DERIDDER       FAIR      52  27  38 W6        30.05R
OAKDALE        FAIR      43  35  73 CALM      30.03R
OPELOUSAS      FAIR      55  32  42 NW6       30.02R
$$

ACROSS SOUTHWEST AND SOUTH CENTRAL LOUISIANA

CITY           SKY/WX    TMP DP  RH WIND       PRES   REMARKS
SULPHUR        FAIR      55  31  40 NW6       30.05R
LAKE CHARLES   FAIR      55  33  43 NW6       30.04R
CHENNAULT INT  CLEAR     52  32  46 NW3       30.04R
CAMERON PHI    CLEAR     57  36  44 NW9       30.05R
DEQUINCY       FAIR      50  33  51 CALM      30.05R
JENNINGS       FAIR      56  36  46 NW7       30.03R
LAFAYETTE      FAIR      59  33  37 NW7       30.01R
NEW IBERIA     FAIR      54  41  61 W5        30.02R
ABBEVILLE      FAIR      53  37  55 NW5       30.03R
PATTERSON      FAIR      61  39  44 W6        30.00R
SALT POINT     NOT AVBL
$$

SELECTED SITES ACROSS THE REGION

CITY           SKY/WX    TMP DP  RH WIND       PRES   REMARKS
HOUSTON BUSH   FAIR      57  29  34 NW5       30.09R
HOUSTON HOBBY  FAIR      57  29  34 N9        30.08R
GALVESTON      FAIR      60  35  39 NW10      30.08R
COLLEGE STAT   CLEAR     57  24  28 NW6       30.10R
CONROE         FAIR      46  35  65 CALM      30.08R
HUNTSVILLE     FAIR      55  24  30 NW6       30.08R
LUFKIN         FAIR      54  24  31 W3        30.05R
SHREVEPORT     FAIR      54  24  31 W12       30.02R
MONROE         FAIR      56  26  31 W15       29.98R
NATCHEZ MS     FAIR      56  30  37 W3        30.00R
BATON ROUGE    FAIR      59  32  36 W6        29.99R
N.O. INTL ARPT MOCLDY    62  56  80 NW5       29.97R
SLIDELL        FAIR      60  49  66 SW3       29.96R
$$

MARINE REPORTS

STATION/POSITION TIME  SKY/WX   TEMP    WIND        PRES    VSBY
                                AIR SEA DIR/SP/G
                 (UTC)          (F)     (DEG/KT/KT) (MB)    (MI)
BUOY 30 S HIGH I 2350            58 53  310/ 10/ 12 1017.3
WVE H/P(F/S)=  2/ 7

SEA RIM ST PARK  0000            57     330/  8/  9 1017.3R
PORT ARTHUR      0048            60 51  330/ 12/ 17 1017.7R
SABINE PASS N    0048            58 54  310/  8/ 13 1019.3R
TEXAS POINT      NOT AVBL
CALCASIEU PASS   0048            58 53  340/ 11/ 12 1016.1R
LK CHARLES BEACH 0048            59 55              1016.6R
MARSH ISLAND     0000            55                   N/A
FRESH WATER LOCK 0048            58 51  300/  3/  4 1016.3R
AMERADA PASS     0048            58 48  250/  2/  5 1015.8R
$$




USA.gov is the U.S. government's official web portal to all federal, state and local government web resources and services.